This is the latest recevied weather packets stored in our database for station/object DL1SEW-6. If no packets are shown the sender has not sent any weather packets the latest 10 day(s).
| Time | Temp. | Humidity | Pressure | Rain* | Wind** | Luminosity | Snow |
|---|---|---|---|---|---|---|---|
| 1777739998 | 25° C | 28% | 1016.2 hPa | 0 mm | - | 283 W/m² | - |
| 1777739096 | 25.56° C | 28% | 1016.5 hPa | 0 mm | - | 352 W/m² | - |
| 1777738196 | 26.11° C | 27% | 1016.8 hPa | 0 mm | - | 378 W/m² | - |
| 1777737296 | 26.11° C | 27% | 1016.9 hPa | 0 mm | - | 375 W/m² | - |
| 1777736396 | 26.11° C | 26% | 1017.1 hPa | 0 mm | - | 473 W/m² | - |
| 1777735495 | 26.11° C | 27% | 1017.5 hPa | 0 mm | - | 533 W/m² | - |
| 1777734597 | 26.67° C | 30% | 1017.8 hPa | 0 mm | - | 591 W/m² | - |
| 1777732795 | 26.11° C | 26% | 1018.2 hPa | 0 mm | - | 635 W/m² | - |
| 1777731895 | 26.11° C | 26% | 1018.4 hPa | 0 mm | - | 533 W/m² | - |
| 1777730996 | 26.11° C | 28% | 1018.6 hPa | 0 mm | - | 634 W/m² | - |
| 1777730094 | 26.11° C | 27% | 1018.8 hPa | 0 mm | - | 659 W/m² | - |
| 1777729194 | 25.56° C | 26% | 1019 hPa | 0 mm | - | 670 W/m² | - |
| 1777728294 | 25.56° C | 28% | 1019.3 hPa | 0 mm | - | 752 W/m² | - |
| 1777727395 | 25° C | 26% | 1019.5 hPa | 0 mm | - | 233 W/m² | - |
| 1777726496 | 24.44° C | 29% | 1019.7 hPa | 0 mm | - | 712 W/m² | - |
| 1777725595 | 25° C | 26% | 1020.2 hPa | 0 mm | - | 782 W/m² | - |
| 1777724693 | 24.44° C | 26% | 1020.2 hPa | 0 mm | - | 799 W/m² | - |
| 1777723793 | 24.44° C | 25% | 1020.3 hPa | 0 mm | - | 817 W/m² | - |
| 1777722895 | 25° C | 24% | 1020.6 hPa | 0 mm | - | 800 W/m² | - |
| 1777721999 | 25° C | 26% | 1020.8 hPa | 0 mm | - | 871 W/m² | - |
| 1777721098 | 25° C | 29% | 1021.3 hPa | 0 mm | - | 904 W/m² | - |
| 1777720198 | 24.44° C | 26% | 1021.5 hPa | 0 mm | - | 951 W/m² | - |
| 1777719297 | 24.44° C | 27% | 1021.6 hPa | 0 mm | - | 820 W/m² | - |
| 1777718398 | 23.89° C | 27% | 1022 hPa | 0 mm | - | 858 W/m² | - |
| 1777717497 | 23.89° C | 28% | 1022.1 hPa | 0 mm | - | 890 W/m² | - |
* Rain latest hour (hover to see other rain measurements)
** Current wind speed in m/s (hover to see current wind gust speed)